When you browse on this site, cookies collect data to enhance your experience and personalize the content and advertising you see.
Visit our Privacy Policy to learn more. By continuing to use the site, you agree to this use of cookies and data.
  • In Hungary
  • List of Countries
  • For 7 days
  • Water Temperature
  • Satellite Maps
  • Weather Map
  • News
  • Weather Widgets
  • user-avatar
    Login

    Hourly Weather Wawrow

    Today, 16 January, Wednesday

    Time Temperature Precipitation Wind Pressure Humidity
    00:00 +4°C° 0.3 mm 7 mps 747 mmHg 87%
    01:00 +4°C° 0.3 mm 7 mps 747 mmHg 88%
    02:00 +4°C° 0.8 mm 6 mps 747 mmHg 89%
    03:00 +4°C° 0.8 mm 6 mps 747 mmHg 90%
    04:00 +4°C° 0.8 mm 6 mps 747 mmHg 90%
    05:00 +4°C° 0.1 mm 6 mps 747 mmHg 87%
    06:00 +4°C° 0.1 mm 6 mps 747 mmHg 85%
    07:00 +5°C° 0.1 mm 7 mps 748 mmHg 82%
    08:00 +5°C° 0 mm 6 mps 748 mmHg 82%
    09:00 +4°C° 0 mm 6 mps 748 mmHg 82%
    10:00 +4°C° 0 mm 6 mps 748 mmHg 82%
    11:00 +4°C° 0 mm 6 mps 748 mmHg 82%
    12:00 +5°C° 0 mm 6 mps 748 mmHg 82%
    13:00 +5°C° 0 mm 6 mps 748 mmHg 82%
    14:00 +5°C° 0 mm 6 mps 747 mmHg 83%
    15:00 +4°C° 0 mm 6 mps 747 mmHg 83%
    16:00 +5°C° 0 mm 5 mps 747 mmHg 84%
    17:00 +5°C° 0 mm 5 mps 747 mmHg 84%
    18:00 +4°C° 0 mm 6 mps 746 mmHg 83%
    19:00 +4°C° 0 mm 6 mps 746 mmHg 83%
    20:00 +3°C° 0 mm 6 mps 746 mmHg 82%
    21:00 +3°C° 0 mm 6 mps 745 mmHg 82%
    22:00 +2°C° 0 mm 6 mps 745 mmHg 81%
    23:00 +2°C° 0.1 mm 6 mps 744 mmHg 80%

    Tomorrow, 17 January, Thursday

    Time Temperature Precipitation Wind Pressure Humidity
    00:00 +2°C° 0.1 mm 6 mps 743 mmHg 78%
    01:00 +2°C° 0.1 mm 6 mps 743 mmHg 77%
    02:00 +2°C° 0 mm 6 mps 742 mmHg 76%
    03:00 +2°C° 0 mm 6 mps 742 mmHg 74%
    04:00 +2°C° 0 mm 7 mps 741 mmHg 73%
    05:00 +2°C° 0.1 mm 7 mps 741 mmHg 75%
    06:00 +2°C° 0.1 mm 7 mps 742 mmHg 77%
    07:00 +3°C° 0.1 mm 7 mps 742 mmHg 78%
    08:00 +3°C° 0 mm 7 mps 742 mmHg 77%
    09:00 +3°C° 0 mm 7 mps 742 mmHg 77%
    10:00 +3°C° 0 mm 7 mps 742 mmHg 76%
    11:00 +3°C° 0 mm 7 mps 742 mmHg 73%
    12:00 +2°C° 0 mm 8 mps 742 mmHg 70%
    13:00 +4°C° 0 mm 8 mps 742 mmHg 67%
    14:00 +3°C° 0.2 mm 7 mps 742 mmHg 70%
    15:00 +3°C° 0.2 mm 6 mps 742 mmHg 72%
    16:00 +3°C° 0.2 mm 6 mps 741 mmHg 74%
    17:00 +2°C° 1.4 mm 6 mps 742 mmHg 71%
    18:00 +1°C° 1.4 mm 6 mps 742 mmHg 68%
    19:00 +1°C° 1.4 mm 6 mps 742 mmHg 65%
    20:00 -1°C° 0 mm 6 mps 743 mmHg 65%
    21:00 -1°C° 0 mm 7 mps 744 mmHg 65%
    22:00 -2°C° 0 mm 7 mps 745 mmHg 65%
    23:00 -2°C° 0 mm 7 mps 745 mmHg 68%

    Day after tomorrow, 18 January, Friday

    Time Temperature Precipitation Wind Pressure Humidity
    00:00 -2°C° 0 mm 7 mps 746 mmHg 71%
    01:00 -3°C° 0 mm 7 mps 747 mmHg 74%
    02:00 -3°C° 0.1 mm 7 mps 747 mmHg 74%
    03:00 -3°C° 0.1 mm 6 mps 748 mmHg 74%
    04:00 -3°C° 0.1 mm 6 mps 749 mmHg 74%
    05:00 -3°C° 0.1 mm 6 mps 750 mmHg 74%
    06:00 -3°C° 0.1 mm 6 mps 751 mmHg 74%
    07:00 -4°C° 0.1 mm 5 mps 752 mmHg 74%
    08:00 -4°C° 0 mm 5 mps 753 mmHg 72%
    09:00 -2°C° 0 mm 5 mps 754 mmHg 70%
    10:00 -2°C° 0 mm 5 mps 754 mmHg 68%
    11:00 -2°C° 0 mm 5 mps 755 mmHg 64%
    12:00 -1°C° 0 mm 4 mps 755 mmHg 61%
    13:00 -1°C° 0 mm 4 mps 756 mmHg 57%
    14:00 -1°C° 0 mm 4 mps 756 mmHg 60%
    15:00 -1°C° 0 mm 3 mps 756 mmHg 63%
    16:00 -1°C° 0 mm 3 mps 756 mmHg 65%
    17:00 -1°C° 0 mm 3 mps 756 mmHg 68%
    18:00 -2°C° 0 mm 3 mps 756 mmHg 70%
    19:00 -2°C° 0 mm 3 mps 757 mmHg 72%
    20:00 -2°C° 0 mm 3 mps 757 mmHg 77%
    21:00 -1°C° 0 mm 3 mps 757 mmHg 82%
    22:00 -1°C° 0 mm 3 mps 757 mmHg 87%
    23:00 -1°C° 0 mm 3 mps 757 mmHg 87%

    19 January, Saturday

    Time Temperature Precipitation Wind Pressure Humidity
    00:00 -2°C° 0 mm 3 mps 757 mmHg 88%
    01:00 -2°C° 0 mm 3 mps 757 mmHg 88%
    02:00 -2°C° 0 mm 3 mps 757 mmHg 88%
    03:00 -2°C° 0 mm 3 mps 757 mmHg 89%
    04:00 -2°C° 0 mm 2 mps 757 mmHg 89%
    05:00 -2°C° 0 mm 2 mps 757 mmHg 89%
    06:00 -2°C° 0 mm 2 mps 757 mmHg 89%
    07:00 -2°C° 0 mm 2 mps 757 mmHg 89%
    08:00 -2°C° 0 mm 2 mps 758 mmHg 86%
    09:00 -1°C° 0 mm 2 mps 758 mmHg 83%
    10:00 -1°C° 0 mm 2 mps 758 mmHg 80%
    11:00 +1°C° 0 mm 2 mps 758 mmHg 76%
    12:00 +2°C° 0 mm 2 mps 758 mmHg 73%
    13:00 +2°C° 0 mm 2 mps 758 mmHg 69%
    14:00 +3°C° 0 mm 1 mps 757 mmHg 73%
    15:00 +2°C° 0 mm 1 mps 757 mmHg 76%
    16:00 +1°C° 0 mm 1 mps 757 mmHg 80%
    17:00 0°C° 0 mm 0 mps 757 mmHg 81%
    18:00 -1°C° 0 mm 0 mps 757 mmHg 82%
    19:00 -1°C° 0 mm 0 mps 758 mmHg 84%
    20:00 -1°C° 0 mm 0 mps 758 mmHg 84%
    21:00 -1°C° 0 mm 0 mps 758 mmHg 84%
    22:00 -1°C° 0 mm 0 mps 758 mmHg 84%
    23:00 -1°C° 0 mm 0 mps 758 mmHg 84%

    20 January, Sunday

    Time Temperature Precipitation Wind Pressure Humidity
    00:00 0°C° 0 mm 1 mps 758 mmHg 84%
    01:00 0°C° 0 mm 1 mps 758 mmHg 84%
    02:00 0°C° 0 mm 1 mps 758 mmHg 86%
    03:00 -1°C° 0 mm 1 mps 758 mmHg 87%
    04:00 -1°C° 0 mm 1 mps 759 mmHg 88%
    05:00 -1°C° 0 mm 1 mps 759 mmHg 89%
    06:00 -1°C° 0 mm 1 mps 759 mmHg 90%
    07:00 -1°C° 0 mm 1 mps 760 mmHg 92%
    08:00 -1°C° 0 mm 1 mps 760 mmHg 89%
    09:00 0°C° 0 mm 1 mps 761 mmHg 86%
    10:00 +1°C° 0 mm 1 mps 761 mmHg 84%
    11:00 +1°C° 0 mm 1 mps 761 mmHg 77%
    12:00 +2°C° 0 mm 1 mps 761 mmHg 70%
    13:00 +3°C° 0 mm 1 mps 762 mmHg 63%
    14:00 +2°C° 0 mm 1 mps 762 mmHg 66%
    15:00 +1°C° 0 mm 1 mps 762 mmHg 70%
    16:00 -2°C° 0 mm 2 mps 762 mmHg 74%
    17:00 -2°C° 0 mm 2 mps 763 mmHg 75%
    18:00 -2°C° 0 mm 2 mps 763 mmHg 76%
    19:00 -3°C° 0 mm 2 mps 763 mmHg 77%
    20:00 -3°C° 0 mm 2 mps 764 mmHg 76%
    21:00 -1°C° 0 mm 1 mps 764 mmHg 76%
    22:00 -1°C° 0 mm 1 mps 765 mmHg 76%
    23:00 -1°C° 0 mm 1 mps 765 mmHg 76%

    21 January, Monday

    Time Temperature Precipitation Wind Pressure Humidity
    00:00 -1°C° 0 mm 1 mps 765 mmHg 75%
    01:00 -1°C° 0 mm 1 mps 765 mmHg 75%
    02:00 -1°C° 0 mm 1 mps 765 mmHg 76%
    03:00 -1°C° 0 mm 1 mps 766 mmHg 76%
    04:00 -1°C° 0 mm 1 mps 766 mmHg 76%
    05:00 -1°C° 0 mm 1 mps 766 mmHg 77%
    06:00 -3°C° 0 mm 0 mps 766 mmHg 77%
    07:00 -3°C° 0 mm 0 mps 766 mmHg 78%
    08:00 -2°C° 0 mm 0 mps 766 mmHg 75%
    09:00 -2°C° 0 mm 0 mps 766 mmHg 73%
    10:00 -1°C° 0 mm 0 mps 766 mmHg 70%
    11:00 0°C° 0 mm 1 mps 766 mmHg 67%
    12:00 +1°C° 0 mm 1 mps 766 mmHg 63%
    13:00 +2°C° 0 mm 1 mps 766 mmHg 60%
    14:00 +1°C° 0 mm 1 mps 766 mmHg 63%
    15:00 0°C° 0 mm 1 mps 765 mmHg 66%
    16:00 0°C° 0 mm 1 mps 765 mmHg 69%
    17:00 -1°C° 0 mm 1 mps 765 mmHg 70%
    18:00 -1°C° 0 mm 1 mps 765 mmHg 71%
    19:00 -3°C° 0 mm 2 mps 764 mmHg 72%
    20:00 -3°C° 0 mm 2 mps 764 mmHg 70%
    21:00 -3°C° 0 mm 2 mps 764 mmHg 68%
    22:00 -4°C° 0 mm 2 mps 763 mmHg 66%
    23:00 -5°C° 0 mm 3 mps 763 mmHg 64%
    Show more